Location: Acton
(51.4942°N, 0.2232°W)
Time: 12:38:28
(UTC+00:00)

ATLAS 3B R/B - Pass Details

Date: 18 September 2020
Orbit: 1016 x 1179 km, 63.8° (Epoch: 04 October)

Event Time Altitude Azimuth Distance (km) Brightness Sun altitude
Rises 23:10:53 0° 312° (NW) 3,847 6.3 -36.3°
Reaches altitude 10° 23:13:58 10° 299° (WNW) 2,914 5.4 -36.4°
Enters shadow 23:17:17 22° 273° (W) 2,194 4.4 -36.5°
